Location: Unspecified
(0.0000°N, 0.0000°E)
Time: 23:43:31
(UTC+00:00)

Vanguard 2 - Pass Details

Date: 16 December 2018
Orbit: 552 x 2939 km, 32.9° (Epoch: 18 January)

Event Time Altitude Azimuth Distance (km) Brightness Sun altitude
Rises 04:09:48 0° 296° (WNW) 5,614 - -24.1°
Reaches altitude 10° 04:13:05 10° 294° (WNW) 4,870 - -23.4°
Exits shadow 04:18:10 29° 286° (WNW) 3,874 10.5 -22.2°
Maximum altitude 04:28:05 66° 215° (SW) 3,034 10.4 -20.0°
Drops below altitude 10° 04:45:54 10° 135° (SE) 5,632 13.0 -15.9°
Sets 04:50:06 0° 132° (SE) 6,496 13.7 -15.0°
